| time (UTC) | temp F | wind direction | speed MPH | gust MPH | rain 1hr in | rain 24hr in | rain mn in | humidity % | barometer mb |
| 20260504002821 | 63 | 237 | 1.0 | 2.0 | 0.00 | 0.00 | 0.00 | 44 | 1018.3 |
| 20260504002318 | 63 | 228 | 1.0 | 2.0 | 0.00 | 0.00 | 0.00 | 43 | 1018.1 |
| 20260504001816 | 64 | 251 | 2.0 | 4.0 | 0.00 | 0.00 | 0.00 | 42 | 1017.8 |
| 20260504001313 | 64 | 251 | 1.0 | 4.0 | 0.00 | 0.00 | 0.00 | 41 | 1018.3 |
| 20260504000810 | 64 | 235 | 2.0 | 3.0 | 0.00 | 0.00 | 0.00 | 40 | 1018.1 |
| 20260504000307 | 65 | 243 | 0.0 | 3.0 | 0.00 | 0.00 | 0.00 | 40 | 1017.9 |
| 20260503235804 | 66 | 252 | 2.0 | 6.0 | 0.00 | 0.00 | 0.00 | 39 | 1018.1 |
| 20260503235301 | 66 | 249 | 4.0 | 8.0 | 0.00 | 0.00 | 0.00 | 38 | 1018.1 |
| 20260503234759 | 67 | 254 | 1.0 | 4.0 | 0.00 | 0.00 | 0.00 | 37 | 1018.2 |
| 20260503234257 | 67 | 234 | 1.0 | 3.0 | 0.00 | 0.00 | 0.00 | 37 | 1018.0 |
| 20260503233754 | 68 | 248 | 4.0 | 6.0 | 0.00 | 0.00 | 0.00 | 36 | 1018.1 |
| 20260503233249 | 68 | 246 | 2.0 | 4.0 | 0.00 | 0.00 | 0.00 | 36 | 1017.9 |
| 20260503232747 | 68 | 256 | 2.0 | 8.0 | 0.00 | 0.00 | 0.00 | 36 | 1018.0 |
| 20260503232244 | 69 | 260 | 4.0 | 8.0 | 0.00 | 0.00 | 0.00 | 36 | 1017.9 |
| 20260503231742 | 69 | 228 | 4.0 | 6.0 | 0.00 | 0.00 | 0.00 | 35 | 1018.0 |
| 20260503231239 | 69 | 265 | 4.0 | 4.0 | 0.00 | 0.00 | 0.00 | 35 | 1018.1 |
| 20260503230734 | 69 | 258 | 2.0 | 6.0 | 0.00 | 0.00 | 0.00 | 37 | 1018.0 |
| 20260503230232 | 69 | 257 | 4.0 | 7.0 | 0.00 | 0.00 | 0.00 | 36 | 1018.1 |
| 20260503225729 | 70 | 244 | 1.0 | 2.0 | 0.00 | 0.00 | 0.00 | 35 | 1018.2 |
| 20260503225223 | 70 | 258 | 1.0 | 4.0 | 0.00 | 0.00 | 0.00 | 35 | 1018.2 |
| 20260503224721 | 70 | 237 | 5.0 | 8.0 | 0.00 | 0.00 | 0.00 | 34 | 1018.2 |
| 20260503224218 | 69 | 249 | 6.0 | 8.0 | 0.00 | 0.00 | 0.00 | 33 | 1018.2 |
| 20260503223716 | 70 | 229 | 2.0 | 3.0 | 0.00 | 0.00 | 0.00 | 35 | 1018.0 |
| 20260503223214 | 70 | 250 | 0.0 | 3.0 | 0.00 | 0.00 | 0.00 | 34 | 1018.1 |
| 20260503222710 | 70 | 260 | 1.0 | 10.0 | 0.00 | 0.00 | 0.00 | 35 | 1018.2 |
| 20260503222208 | 70 | 226 | 2.0 | 6.0 | 0.00 | 0.00 | 0.00 | 35 | 1018.1 |
| 20260503221706 | 71 | 260 | 3.0 | 7.0 | 0.00 | 0.00 | 0.00 | 35 | 1018.1 |
| 20260503221203 | 71 | 223 | 5.0 | 10.0 | 0.00 | 0.00 | 0.00 | 33 | 1018.1 |
| 20260503220700 | 70 | 237 | 3.0 | 6.0 | 0.00 | 0.00 | 0.00 | 31 | 1018.1 |
| 20260503220156 | 72 | 256 | 4.0 | 6.0 | 0.00 | 0.00 | 0.00 | 33 | 1018.2 |
| 20260503215653 | 72 | 227 | 4.0 | 6.0 | 0.00 | 0.00 | 0.00 | 35 | 1018.1 |
| 20260503215149 | 73 | 164 | 6.0 | 8.0 | 0.00 | 0.00 | 0.00 | 32 | 1018.1 |
| 20260503214648 | 73 | 241 | 1.0 | 1.0 | 0.00 | 0.00 | 0.00 | 32 | 1018.3 |
| 20260503214143 | 71 | 256 | 3.0 | 7.0 | 0.00 | 0.00 | 0.00 | 35 | 1018.5 |
| 20260503213638 | 73 | 262 | 1.0 | 4.0 | 0.00 | 0.00 | 0.00 | 33 | 1018.2 |
| 20260503213134 | 72 | 155 | 2.0 | 6.0 | 0.00 | 0.00 | 0.00 | 31 | 1018.3 |
| 20260503212631 | 71 | 276 | 5.0 | 10.0 | 0.00 | 0.00 | 0.00 | 32 | 1018.3 |
| 20260503212129 | 71 | 229 | 1.0 | 7.0 | 0.00 | 0.00 | 0.00 | 33 | 1018.1 |
| 20260503211627 | 71 | 244 | 2.0 | 7.0 | 0.00 | 0.00 | 0.00 | 34 | 1018.4 |
| 20260503211121 | 72 | 266 | 3.0 | 4.0 | 0.00 | 0.00 | 0.00 | 36 | 1018.6 |
| 20260503210618 | 73 | 258 | 1.0 | 4.0 | 0.00 | 0.00 | 0.00 | 34 | 1018.2 |
| 20260503210115 | 72 | 259 | 1.0 | 4.0 | 0.00 | 0.00 | 0.00 | 37 | 1018.6 |
| 20260503205611 | 70 | 228 | 1.0 | 6.0 | 0.00 | 0.00 | 0.00 | 36 | 1018.4 |
| 20260503205107 | 71 | 265 | 6.0 | 9.0 | 0.00 | 0.00 | 0.00 | 34 | 1018.7 |
| 20260503204604 | 71 | 240 | 4.0 | 10.0 | 0.00 | 0.00 | 0.00 | 34 | 1018.6 |
| 20260503204101 | 71 | 222 | 0.0 | 3.0 | 0.00 | 0.00 | 0.00 | 33 | 1018.7 |
| 20260503203558 | 72 | 254 | 2.0 | 7.0 | 0.00 | 0.00 | 0.00 | 32 | 1018.7 |
| 20260503203055 | 72 | 256 | 2.0 | 4.0 | 0.00 | 0.00 | 0.00 | 34 | 1018.9 |
| 20260503202553 | 72 | 51 | 3.0 | 4.0 | 0.00 | 0.00 | 0.00 | 31 | 1018.9 |
| 20260503202051 | 72 | 219 | 1.0 | 7.0 | 0.00 | 0.00 | 0.00 | 31 | 1019.0 |
| 20260503201549 | 72 | 257 | 2.0 | 13.0 | 0.00 | 0.00 | 0.00 | 31 | 1019.1 |
| 20260503201046 | 72 | 216 | 0.0 | 3.0 | 0.00 | 0.00 | 0.00 | 34 | 1019.1 |
| 20260503200542 | 71 | 266 | 1.0 | 6.0 | 0.00 | 0.00 | 0.00 | 33 | 1019.2 |
| 20260503200038 | 70 | 234 | 1.0 | 6.0 | 0.00 | 0.00 | 0.00 | 34 | 1019.3 |
| 20260503195536 | 71 | 252 | 3.0 | 8.0 | 0.00 | 0.00 | 0.00 | 34 | 1019.3 |
| 20260503195032 | 72 | 0 | 1.0 | 2.0 | 0.00 | 0.00 | 0.00 | 35 | 1019.6 |
| 20260503194530 | 72 | 249 | 4.0 | 7.0 | 0.00 | 0.00 | 0.00 | 36 | 1019.7 |
| 20260503194030 | 71 | 254 | 0.0 | 6.0 | 0.00 | 0.00 | 0.00 | 37 | 1019.7 |
| 20260503193527 | 71 | 241 | 0.0 | 3.0 | 0.00 | 0.00 | 0.00 | 35 | 1019.7 |
| 20260503193022 | 71 | 243 | 4.0 | 6.0 | 0.00 | 0.00 | 0.00 | 37 | 1019.7 |
| 20260503192518 | 71 | 244 | 0.0 | 3.0 | 0.00 | 0.00 | 0.00 | 34 | 1020.0 |
| 20260503192014 | 71 | 261 | 4.0 | 7.0 | 0.00 | 0.00 | 0.00 | 34 | 1020.0 |
| 20260503191511 | 70 | 273 | 2.0 | 6.0 | 0.00 | 0.00 | 0.00 | 35 | 1020.3 |
| 20260503191008 | 71 | 242 | 1.0 | 3.0 | 0.00 | 0.00 | 0.00 | 36 | 1020.2 |
| 20260503190505 | 72 | 247 | 3.0 | 3.0 | 0.00 | 0.00 | 0.00 | 35 | 1020.2 |
| 20260503190002 | 71 | 221 | 0.0 | 6.0 | 0.00 | 0.00 | 0.00 | 37 | 1020.3 |
| 20260503185458 | 71 | 222 | 1.0 | 4.0 | 0.00 | 0.00 | 0.00 | 35 | 1020.5 |
| 20260503184957 | 70 | 246 | 2.0 | 4.0 | 0.00 | 0.00 | 0.00 | 34 | 1020.4 |
| 20260503184454 | 71 | 272 | 4.0 | 7.0 | 0.00 | 0.00 | 0.00 | 36 | 1020.5 |
| 20260503183951 | 71 | 295 | 0.0 | 2.0 | 0.00 | 0.00 | 0.00 | 34 | 1020.5 |
| 20260503183447 | 70 | 260 | 2.0 | 4.0 | 0.00 | 0.00 | 0.00 | 36 | 1020.8 |
| 20260503182944 | 69 | 30 | 0.0 | 3.0 | 0.00 | 0.00 | 0.00 | 36 | 1020.8 |
| 20260503182443 | 69 | 279 | 4.0 | 8.0 | 0.00 | 0.00 | 0.00 | 35 | 1021.1 |
| 20260503181940 | 69 | 219 | 2.0 | 2.0 | 0.00 | 0.00 | 0.00 | 34 | 1020.8 |
| 20260503181437 | 69 | 265 | 2.0 | 8.0 | 0.00 | 0.00 | 0.00 | 36 | 1020.9 |
| 20260503180933 | 68 | 182 | 2.0 | 4.0 | 0.00 | 0.00 | 0.00 | 39 | 1020.8 |
| 20260503180431 | 69 | 278 | 3.0 | 3.0 | 0.00 | 0.00 | 0.00 | 39 | 1021.0 |
| 20260503175928 | 69 | 55 | 2.0 | 4.0 | 0.00 | 0.00 | 0.00 | 36 | 1020.9 |
| 20260503175426 | 69 | 226 | 1.0 | 3.0 | 0.00 | 0.00 | 0.00 | 34 | 1021.0 |
| 20260503174921 | 69 | 246 | 1.0 | 6.0 | 0.00 | 0.00 | 0.00 | 39 | 1020.9 |
| 20260503174420 | 68 | 52 | 4.0 | 6.0 | 0.00 | 0.00 | 0.00 | 38 | 1021.0 |
| 20260503173920 | 68 | 316 | 3.0 | 7.0 | 0.00 | 0.00 | 0.00 | 37 | 1021.1 |
| 20260503173417 | 68 | 335 | 2.0 | 2.0 | 0.00 | 0.00 | 0.00 | 36 | 1021.1 |
| 20260503172914 | 68 | 235 | 1.0 | 2.0 | 0.00 | 0.00 | 0.00 | 35 | 1021.3 |
| 20260503172411 | 67 | 250 | 0.0 | 6.0 | 0.00 | 0.00 | 0.00 | 34 | 1021.2 |
| 20260503171907 | 68 | 266 | 3.0 | 3.0 | 0.00 | 0.00 | 0.00 | 34 | 1021.3 |
| 20260503171404 | 67 | 211 | 0.0 | 6.0 | 0.00 | 0.00 | 0.00 | 36 | 1021.3 |
| 20260503170902 | 66 | 239 | 0.0 | 3.0 | 0.00 | 0.00 | 0.00 | 37 | 1021.4 |
| 20260503170358 | 66 | 227 | 0.0 | 4.0 | 0.00 | 0.00 | 0.00 | 39 | 1021.6 |
| 20260503150750 | 64 | 237 | 1.0 | 4.0 | 0.00 | 0.00 | 0.00 | 46 | 1022.0 |
| 20260503150246 | 63 | 219 | 0.0 | 1.0 | 0.00 | 0.00 | 0.00 | 45 | 1022.3 |
| 20260503140211 | 60 | 256 | 3.0 | 4.0 | 0.00 | 0.00 | 0.00 | 57 | 1021.8 |
| 20260503131140 | 58 | 248 | 1.0 | 3.0 | 0.00 | 0.00 | 0.00 | 65 | 1021.7 |
| 20260503130638 | 58 | 223 | 0.0 | 3.0 | 0.00 | 0.00 | 0.00 | 66 | 1021.7 |
| 20260503130135 | 57 | 241 | 0.0 | 1.0 | 0.00 | 0.00 | 0.00 | 67 | 1021.6 |
| 20260503110527 | 45 | 263 | 3.0 | 3.0 | 0.00 | 0.00 | 0.00 | 85 | 1020.8 |
| 20260503090415 | 46 | 244 | 1.0 | 2.0 | 0.00 | 0.00 | 0.00 | 82 | 1019.7 |
| 20260503081341 | 46 | 241 | 0.0 | 1.0 | 0.00 | 0.00 | 0.00 | 83 | 1019.5 |
| 20260503080838 | 46 | 240 | 1.0 | 1.0 | 0.00 | 0.00 | 0.00 | 82 | 1019.4 |
| 20260503080335 | 46 | 233 | 0.0 | 1.0 | 0.00 | 0.00 | 0.00 | 82 | 1019.4 |
| 20260503072811 | 48 | 239 | 1.0 | 1.0 | 0.00 | 0.00 | 0.00 | 76 | 1019.1 |
| 20260503072308 | 47 | 230 | 2.0 | 2.0 | 0.00 | 0.00 | 0.00 | 78 | 1019.0 |
| 20260503071803 | 47 | 245 | 1.0 | 2.0 | 0.00 | 0.00 | 0.00 | 79 | 1018.9 |
| 20260503071256 | 47 | 243 | 1.0 | 2.0 | 0.00 | 0.00 | 0.00 | 79 | 1018.9 |
| 20260503070752 | 47 | 230 | 1.0 | 1.0 | 0.00 | 0.00 | 0.00 | 78 | 1018.9 |
| 20260503070250 | 48 | 248 | 1.0 | 2.0 | 0.00 | 0.00 | 0.00 | 77 | 1018.6 |
| 20260503060209 | 48 | 242 | 1.0 | 2.0 | 0.00 | 0.00 | 0.00 | 75 | 1019.0 |
| 20260503054656 | 49 | 227 | 1.0 | 2.0 | 0.00 | 0.00 | 0.00 | 72 | 1018.7 |
| 20260503054153 | 48 | 258 | 2.0 | 2.0 | 0.00 | 0.00 | 0.00 | 74 | 1018.8 |
| 20260503053651 | 48 | 243 | 1.0 | 2.0 | 0.00 | 0.00 | 0.00 | 76 | 1018.8 |
| 20260503053150 | 48 | 244 | 1.0 | 2.0 | 0.00 | 0.00 | 0.00 | 76 | 1018.6 |
| 20260503052646 | 47 | 248 | 1.0 | 1.0 | 0.00 | 0.00 | 0.00 | 79 | 1018.8 |
| 20260503052142 | 47 | 240 | 1.0 | 2.0 | 0.00 | 0.00 | 0.00 | 79 | 1018.8 |
| 20260503051637 | 48 | 247 | 1.0 | 1.0 | 0.00 | 0.00 | 0.00 | 75 | 1018.7 |
| 20260503051135 | 47 | 237 | 1.0 | 1.0 | 0.00 | 0.00 | 0.00 | 74 | 1018.7 |
| 20260503050632 | 47 | 244 | 0.0 | 0.0 | 0.00 | 0.00 | 0.00 | 77 | 1018.8 |
| 20260503050128 | 49 | 238 | 0.0 | 0.0 | 0.00 | 0.00 | 0.00 | 74 | 1018.6 |
| 20260503045626 | 49 | 237 | 0.0 | 0.0 | 0.00 | 0.00 | 0.00 | 71 | 1018.6 |
| 20260503045123 | 49 | 235 | 0.0 | 1.0 | 0.00 | 0.00 | 0.00 | 70 | 1018.7 |
| 20260503044619 | 50 | 238 | 1.0 | 2.0 | 0.00 | 0.00 | 0.00 | 71 | 1018.6 |
| 20260503044117 | 50 | 243 | 1.0 | 2.0 | 0.00 | 0.00 | 0.00 | 70 | 1018.8 |
| 20260503043614 | 50 | 236 | 1.0 | 2.0 | 0.00 | 0.00 | 0.00 | 70 | 1018.6 |
| 20260503043110 | 49 | 250 | 1.0 | 2.0 | 0.00 | 0.00 | 0.00 | 71 | 1018.6 |
| 20260503042607 | 48 | 245 | 1.0 | 1.0 | 0.00 | 0.00 | 0.00 | 73 | 1018.5 |
| 20260503042103 | 48 | 243 | 1.0 | 1.0 | 0.00 | 0.00 | 0.00 | 76 | 1018.6 |
| 20260503041600 | 49 | 245 | 1.0 | 1.0 | 0.00 | 0.00 | 0.00 | 77 | 1018.4 |
| 20260503041058 | 49 | 230 | 0.0 | 1.0 | 0.00 | 0.00 | 0.00 | 74 | 1018.4 |
| 20260503040555 | 49 | 239 | 0.0 | 1.0 | 0.00 | 0.00 | 0.00 | 72 | 1018.4 |
| 20260503040052 | 49 | 238 | 0.0 | 1.0 | 0.00 | 0.00 | 0.00 | 72 | 1018.4 |
| 20260503035548 | 50 | 221 | 0.0 | 1.0 | 0.00 | 0.00 | 0.00 | 71 | 1018.3 |
| 20260503035046 | 50 | 240 | 1.0 | 1.0 | 0.00 | 0.00 | 0.00 | 71 | 1018.3 |
| 20260503034543 | 50 | 244 | 1.0 | 1.0 | 0.00 | 0.00 | 0.00 | 71 | 1018.7 |
| 20260503034041 | 50 | 237 | 0.0 | 1.0 | 0.00 | 0.00 | 0.00 | 71 | 1018.3 |
| 20260503033538 | 50 | 247 | 1.0 | 2.0 | 0.00 | 0.00 | 0.00 | 70 | 1018.4 |
| 20260503033036 | 50 | 247 | 1.0 | 2.0 | 0.00 | 0.00 | 0.00 | 70 | 1018.1 |
| 20260503032534 | 50 | 235 | 1.0 | 1.0 | 0.00 | 0.00 | 0.00 | 67 | 1018.1 |
| 20260503032031 | 51 | 243 | 1.0 | 1.0 | 0.00 | 0.00 | 0.00 | 67 | 1018.1 |
| 20260503031529 | 51 | 233 | 1.0 | 1.0 | 0.00 | 0.00 | 0.00 | 64 | 1018.1 |
| 20260503031026 | 51 | 238 | 0.0 | 1.0 | 0.00 | 0.00 | 0.00 | 63 | 1018.4 |
| 20260503030522 | 51 | 231 | 0.0 | 1.0 | 0.00 | 0.00 | 0.00 | 64 | 1018.1 |
| 20260503030019 | 51 | 243 | 1.0 | 1.0 | 0.00 | 0.00 | 0.00 | 65 | 1017.9 |
| 20260503025515 | 52 | 243 | 0.0 | 2.0 | 0.00 | 0.00 | 0.00 | 63 | 1017.9 |
| 20260503025014 | 52 | 232 | 1.0 | 1.0 | 0.00 | 0.00 | 0.00 | 61 | 1017.8 |
| 20260503024509 | 52 | 241 | 0.0 | 1.0 | 0.00 | 0.00 | 0.00 | 60 | 1017.6 |
| 20260503024007 | 53 | 223 | 0.0 | 0.0 | 0.00 | 0.00 | 0.00 | 55 | 1017.6 |
| 20260503023503 | 53 | 230 | 0.0 | 0.0 | 0.00 | 0.00 | 0.00 | 55 | 1017.8 |
| 20260503023001 | 54 | 227 | 0.0 | 0.0 | 0.00 | 0.00 | 0.00 | 55 | 1017.4 |
| 20260503022456 | 54 | 232 | 0.0 | 0.0 | 0.00 | 0.00 | 0.00 | 55 | 1017.4 |
| 20260503021951 | 53 | 230 | 0.0 | 0.0 | 0.00 | 0.00 | 0.00 | 56 | 1017.6 |
| 20260503021448 | 53 | 230 | 0.0 | 0.0 | 0.00 | 0.00 | 0.00 | 55 | 1017.3 |
| 20260503020946 | 54 | 230 | 0.0 | 0.0 | 0.00 | 0.00 | 0.00 | 55 | 1017.3 |
| 20260503020443 | 55 | 231 | 0.0 | 0.0 | 0.00 | 0.00 | 0.00 | 52 | 1016.9 |
| 20260503015939 | 56 | 231 | 0.0 | 0.0 | 0.00 | 0.00 | 0.00 | 50 | 1016.9 |
| 20260503015436 | 56 | 234 | 0.0 | 1.0 | 0.00 | 0.00 | 0.00 | 49 | 1016.9 |
| 20260503014932 | 56 | 235 | 0.0 | 0.0 | 0.00 | 0.00 | 0.00 | 48 | 1016.9 |
| 20260503014429 | 57 | 232 | 0.0 | 1.0 | 0.00 | 0.00 | 0.00 | 48 | 1016.8 |
| 20260503013928 | 57 | 240 | 0.0 | 1.0 | 0.00 | 0.00 | 0.00 | 47 | 1016.9 |
| 20260503013425 | 58 | 232 | 0.0 | 0.0 | 0.00 | 0.00 | 0.00 | 46 | 1016.6 |
| 20260503012922 | 58 | 241 | 0.0 | 3.0 | 0.00 | 0.00 | 0.00 | 44 | 1016.7 |
| 20260503012420 | 59 | 239 | 2.0 | 3.0 | 0.00 | 0.00 | 0.00 | 43 | 1016.4 |
| 20260503011915 | 58 | 256 | 2.0 | 2.0 | 0.00 | 0.00 | 0.00 | 44 | 1016.5 |
| 20260503011412 | 59 | 239 | 2.0 | 3.0 | 0.00 | 0.00 | 0.00 | 44 | 1016.5 |
| 20260503010909 | 58 | 219 | 5.0 | 6.0 | 0.00 | 0.00 | 0.00 | 43 | 1016.2 |
| 20260503010406 | 59 | 256 | 0.0 | 1.0 | 0.00 | 0.00 | 0.00 | 43 | 1015.9 |
| 20260503005903 | 59 | 235 | 0.0 | 1.0 | 0.00 | 0.00 | 0.00 | 42 | 1016.0 |
| 20260503005401 | 59 | 237 | 0.0 | 2.0 | 0.00 | 0.00 | 0.00 | 42 | 1016.2 |
| 20260503004856 | 60 | 235 | 0.0 | 3.0 | 0.00 | 0.00 | 0.00 | 41 | 1016.1 |
| 20260503004354 | 60 | 250 | 1.0 | 2.0 | 0.00 | 0.00 | 0.00 | 41 | 1015.7 |
| 20260503003852 | 60 | 247 | 1.0 | 1.0 | 0.00 | 0.00 | 0.00 | 40 | 1016.1 |
| 20260503003348 | 60 | 220 | 2.0 | 6.0 | 0.00 | 0.00 | 0.00 | 39 | 1015.8 |